Location: Whakarora
(40.8500°S, 176.0000°E)
Time: 05:34:40
(UTC+00:00)

Daily predictions for brighter satellites

Satellite Brightness Start Highest point End
(mag) Time Altitude Azimuth Time Altitude Azimuth Time Altitude Azimuth
CZ-4 R/B 4.0 05:53:25 10° SSE 05:58:29 87° ENE 06:03:25 10° NNW
Cosmos 2208 Rocket 4.3 05:54:01 10° N 05:58:55 45° ENE 06:03:55 10° SSE
Meteor 1-12 Rocket 4.3 05:53:52 10° S 05:59:45 74° E 06:05:41 10° NNE
Cosmos 1470 Rocket 4.3 06:01:04 10° SSW 06:05:32 61° W 06:09:55 10° N
COBE Rocket 4.3 06:03:14 10° NE 06:08:02 43° ESE 06:12:47 10° S
Cosmos 2074 Rocket 4.5 06:02:31 10° SSW 06:08:46 70° W 06:14:57 10° N
CBERS-1 4.5 06:04:25 10° SSE 06:09:19 40° E 06:14:08 10° NNE
Cosmos 773 Rocket 4.0 06:04:39 10° N 06:09:50 68° ENE 06:15:08 10° SSE
SL-8 Rocket 4.5 06:05:32 10° S 06:11:17 37° ESE 06:16:59 10° NE
Cosmos 1933 Rocket 3.5 06:08:36 10° S 06:12:59 68° E 06:17:19 10° NNE
ARIANE 5 R/B 3.7 06:09:46 10° SE 06:13:28 20° E 06:17:09 10° NE
Okean 2 4.2 06:10:00 10° NNW 06:13:46 53° W 06:17:38 10° S
Cosmos 1733 Rocket 4.3 06:12:56 10° SSE 06:16:12 20° ESE 06:19:25 10° ENE
Lacrosse 4 Rocket 1.8 06:16:08 10° NW 06:20:17 66° WSW 06:24:24 10° SSE
Cosmos 2082 3.7 06:16:09 10° N 06:21:44 63° ENE 06:27:24 10° SSE
YAOGAN 1 4.3 06:21:30 12° ESE 06:22:26 13° E 06:24:21 10° ENE
Cosmos 2341 Rocket 4.3 06:16:31 10° S 06:22:30 44° ESE 06:28:25 10° NNE
Cosmos 1943 3.9 06:20:43 10° S 06:25:52 33° ESE 06:30:59 10° ENE
Geosat 4.1 06:22:38 10° NE 06:27:33 58° ESE 06:32:30 10° SSW
Cosmos 2366 rocket 4.3 06:22:34 10° S 06:28:42 47° ESE 06:34:41 10° NNE
Okean 3 3.8 06:25:52 10° NNW 06:29:51 66° W 06:33:56 10° S
Cosmos 2327 Rocket 4.4 06:25:55 10° S 06:32:05 73° E 06:38:11 10° NNE
Cosmos 2228 Rocket 4.1 06:33:04 10° NE 06:36:33 23° E 06:40:05 10° SE
SMAP 3.0 06:34:48 10° SSE 06:39:34 83° ENE 06:44:15 10° NNW
Okean 1-7 3.4 06:38:03 10° NNE 06:41:57 37° E 06:45:56 10° SSE
Cosmos 1869 Rocket 3.7 06:38:56 10° S 06:43:20 78° W 06:47:40 10° N
Cosmos 2219 3.5 06:39:16 10° NNW 06:44:55 71° WSW 06:50:41 10° SSE
ATLAS 2AS CENTAUR R/B 3.7 06:38:57 10° SSW 06:45:24 31° SE 06:49:22 19° E
Cosmos 2263 Rocket 3.5 06:40:20 10° NW 06:45:35 40° WSW 06:50:56 10° S
Cosmos 1328 3.7 06:43:11 10° N 06:46:40 48° E 06:50:12 10° SSE
SL-24 R/B 4.5 06:43:10 10° NE 06:47:14 41° ESE 06:51:29 10° S
Cosmos 1844 4.0 06:47:19 10° N 06:52:40 42° ENE 06:58:00 10° SE
Delta 2 Rocket 4.4 06:51:58 10° NNW 06:54:10 18° NNE 06:54:36 17° NNE
Meteor 2-13 Rocket 4.4 06:49:43 10° N 06:55:49 73° E 07:01:59 10° SSE
DELTA 2 R/B (1) 3.6 06:51:21 10° W 06:56:59 76° N 07:00:17 25° ENE
Cosmos 1400 Rocket 2.5 06:54:38 10° S 06:58:22 62° E 07:01:59 10° NNE
SL-16 R/B 3.1 06:52:51 10° SSW 06:58:24 53° WNW 07:03:52 10° N
Cosmos 2298 Rocket 3.9 06:54:14 10° SSW 06:59:36 81° ESE 07:04:54 10° NNE
USA 215 4.3 06:59:07 22° ENE 07:00:36 24° ENE 07:05:39 10° N
Cosmos 1821 Rocket 4.0 06:58:22 10° S 07:04:26 58° E 07:10:31 10° NNE
Cosmos 1707 Rocket 3.4 07:00:44 10° N 07:05:05 69° E 07:09:33 10° SSE
SJ-12 3.6 07:01:23 10° SSE 07:05:12 65° E 07:08:58 10° N
Cosmos 1862 Rocket 3.4 07:02:05 10° N 07:06:23 78° E 07:10:46 10° S
Cosmos 2218 Rocket 4.0 07:03:17 10° S 07:09:40 88° ESE 07:15:53 10° N
Meteor 2-15 4.4 07:04:42 10° S 07:10:53 89° E 07:16:58 10° N
Cosmos 2227 4.1 07:06:29 10° NNW 07:12:11 72° ENE 07:17:55 10° SSE
CZ-4 R/B 4.2 07:12:14 10° SSE 07:16:16 72° ENE 07:20:13 10° N
Meteor 2-15 Rocket 4.3 07:11:51 10° S 07:18:00 72° E 07:24:05 10° NNE
CENTAUR R/B 3.2 07:12:01 10° NNW 07:20:35 54° ENE 07:24:53 26° SE
Meteor 2-5 Rocket 3.8 07:16:21 10° N 07:22:06 60° E 07:28:01 10° SSE
Cosmos 1844 Rocket 2.6 07:20:30 10° NNW 07:26:07 89° ENE 07:31:36 11° SSE
SL-08 R/B 3.5 07:29:27 50° SE 07:29:27 50° SE 07:33:41 10° S
SPOT 1/Viking Rocket 3.9 07:24:46 10° S 07:29:59 65° WSW 07:35:09 10° NNW
Helios 1A Rocket 3.0 07:32:13 49° NW 07:32:32 52° W 07:35:43 10° SSW
ISS -1.2 07:30:47 10° SSW 07:32:05 14° S 07:32:05 14° S
Milstar 3 Cent rocket 3.9 07:30:42 10° NNW 07:33:43 18° NNE 07:33:43 18° NNE
BREEZE-M DEB (TANK) 4.0 07:17:07 10° NW 07:34:29 83° NNE 07:36:05 47° ESE
Meteor 1-24 Rocket 3.8 07:30:07 10° N 07:36:10 89° E 07:42:17 10° S
Nadezhda 3 Rocket 3.9 07:38:21 10° N 07:44:36 78° E 07:50:59 10° S
CZ-4C R/B 4.0 07:46:35 10° SSW 07:49:16 17° SSE 07:49:16 17° SSE
ARIANE 5 R/B 3.5 07:47:53 10° S 07:52:42 46° WSW 07:57:29 10° NW
Cosmos 1538 Rocket 3.9 07:50:33 10° NNW 07:55:51 90° WSW 07:55:53 89° S
YAOGAN 1 3.2 07:58:24 54° WSW 07:58:35 55° WSW 08:02:46 10° NNW
Cosmos 1603 3.7 08:01:52 10° SSW 08:07:02 74° SW 08:07:02 74° SW
ATLAS 2AS CENTAUR R/B 2.9 08:29:35 10° SW 08:36:49 71° WNW 08:36:49 71° WNW
USA 215 4.0 08:46:31 43° NW 08:46:31 43° NW 08:50:39 10° NW
CENTAUR R/B 3.9 09:03:34 10° WNW 09:11:25 41° SW 09:12:01 40° SW
USA 59 Rocket 4.3 11:55:03 10° SE 11:55:03 10° SE 11:55:10 10° SE
